USA 342

Last updated on Thu Aug 20 2026 00:03:00 GMT+0000 (Coordinated Universal Time)

1 55263U 23008A 26230.29072594 .00000133 00000+0 00000+0 0 9990 2 55263 0.0069 68.6671 0000246 130.2543 256.2466 1.00271656 13140
UTC large
Height (km)
Speed (km/s)
/
Latitude / Longitude
Inclination (degrees)
Orbital Period (minutes)
Azimuth
Elevation
Range (km)
Doppler Factor

Next 0 passes for location: London (51.5072 / 0.1276)

No passes found over London.